Regional Weather Roundup
Issued by NWS

Home | Current Version | Previous Version | Graphics & Text | Print | Product List | Glossary On
Versions: 1 2 3 4 5 6 7 8 9 10 11 12 13 14 15 16 17 18 19 20 21 22 23 24 25 26 27
000
ASUS45 KPSR 211910
RWRAZ

ARIZONA HOURLY REGIONAL WEATHER ROUNDUP
NATIONAL WEATHER SERVICE PHOENIX AZ
1200 PM MST TUE FEB 21 2017

NOTE: FAIR INDICATES FEW OR NO CLOUDS BELOW 12,000 FEET WITH NO
SIGNIFICANT WEATHER AND/OR OBSTRUCTIONS TO VISIBILITY.

AZZ001>003-036-212000-
NORTHWEST ARIZONA

CITY           SKY/WX    TMP DP  RH WIND       PRES   REMARKS
BULLHEAD CITY  PTSUNNY   64  52  63 S9        30.30F
KINGMAN        PTSUNNY   62  38  40 SW9       30.32F
$$

AZZ004>008-015-016-018-212000-
NORTH CENTRAL ARIZONA

CITY           SKY/WX    TMP DP  RH WIND       PRES   REMARKS
GRAND CANYON   MOSUNNY   52  40  63 W10G20    30.40F
WILLIAMS       MOSUNNY   54  37  54 W10       30.41F
PRESCOTT       SUNNY     60  41  49 S3        30.37F
FLAGSTAFF      SUNNY     55  35  47 W13G18    30.41F
PAYSON         SUNNY     61  43  51 W7        30.41F
PAGE           SUNNY     56  39  53 N3        30.28F
$$

AZZ009>014-017-212000-
NORTHEAST ARIZONA

CITY           SKY/WX    TMP DP  RH WIND       PRES   REMARKS
WINSLOW        SUNNY     63  40  42 VRB7      30.36F
SAINT JOHNS    SUNNY     59  36  42 W5        30.39F
WINDOW ROCK    SUNNY     58  38  47 S8        30.39F
SHOW LOW       SUNNY     55  34  44 NE7       30.43F
$$

AZZ023-212000-
GREATER PHOENIX AREA

CITY           SKY/WX    TMP DP  RH WIND       PRES   REMARKS
PHOENIX        MOSUNNY   67  49  52 VRB3      30.28F
BUCKEYE        SUNNY     66  54  63 E5        30.29F
GLENDALE       MOSUNNY   66  54  63 CALM      30.31F
LUKE AFB       SUNNY     66  52  59 CALM      30.28F
DEER VALLEY    SUNNY     65  50  58 S3        30.29F
SCOTTSDALE     SUNNY     67  49  52 CALM      30.32S
MESA-FALCON    SUNNY    N/A N/A N/A N12       30.27F
MESA-GATEWAY   SUNNY     63  50  63 CALM      30.31F
CHANDLER       SUNNY     66  50  55 CALM      30.30F
$$

AZZ027-028-212000-
SOUTHWEST MARICOPA COUNTY AND PINAL COUNTY

CITY           SKY/WX    TMP DP  RH WIND       PRES   REMARKS
CASA GRANDE    NOT AVBL
GILA BEND      SUNNY     68  53  58 VRB6      30.27F
$$

AZZ503-504-507>509-212000-
SOUTHEAST ARIZONA

CITY           SKY/WX    TMP DP  RH WIND       PRES   REMARKS
TUCSON         SUNNY     66  44  45 VRB5      30.33F
DAVIS-MONTHAN  SUNNY     64  44  49 CALM      30.31F
RYAN FIELD     SUNNY     66  45  45 CALM      30.33F
NOGALES        SUNNY     68  42  38 W7        30.32F
SIERRA VISTA   SUNNY     68  35  30 NE5       30.37F
DOUGLAS        SUNNY     67  39  35 CALM      30.34F
SAFFORD        SUNNY     62  43  49 W5        30.31F
$$

AZZ020-021-025-026-031-212000-
SOUTHWEST ARIZONA

CITY           SKY/WX    TMP DP  RH WIND       PRES   REMARKS
YUMA           MOSUNNY   73  53  49 N3        30.27F
$$

CAZ031-033-041-043-047-048-061-212000-
SOUTHERN CALIFORNIA

CITY           SKY/WX    TMP DP  RH WIND       PRES   REMARKS
DOWNTOWN L.A.  CLOUDY    64  58  80 CALM      30.32F
L.A. AIRPORT   CLOUDY    61  58  90 W6        30.34S
SAN DIEGO      PTSUNNY   68  53  58 NW7       30.33F
BURBANK        CLOUDY    60  54  80 VRB3      30.33F
ONTARIO        CLOUDY    62  54  74 NW3       30.33R
RIVERSIDE      PTSUNNY   64  56  75 CALM      30.33R
PALM SPRINGS   PTSUNNY   69  56  62 CALM      30.32S
EL CENTRO NAS  MOSUNNY   71  53  52 N6        30.30F
IMPERIAL       SUNNY     70  57  63 E3        30.27F
BLYTHE         SUNNY     68  56  65 SE5       30.29F
NEEDLES        MOSUNNY   68  53  58 VRB3      30.29F
$$

NVZ020-UTZ003-212000-
SOUTHERN NEVADA-UTAH

CITY           SKY/WX    TMP DP  RH WIND       PRES   REMARKS
LAS VEGAS      CLOUDY    68  32  26 S12G23    30.22S
SALT LAKE CITY MOSUNNY   60  36  40 S33G43    30.00F
$$

NMZ009-TXZ055-212000-
NEW MEXICO-WEST TEXAS

CITY           SKY/WX    TMP DP  RH WIND       PRES   REMARKS
ALBUQUERQUE    SUNNY     59  33  37 CALM      30.33F
EL PASO        SUNNY     67  30  25 VRB5      30.28F
$$


........................KEY........................
SKY/WX - SKY CONDITION/WEATHER
TMP    - TEMPERATURE IN FAHRENHEIT
DP     - DEW POINT IN FAHRENHEIT
RH     - RELATIVE HUMIDITY IN PERCENT
WIND   - DIRECTION AND SPEED IN MILES PER HOUR (MPH)
VRB    - VARIABLE WIND DIRECTION
PRES   - MEAN SEA LEVEL PRESSURE IN INCHES OF MERCURY
         F - FALLING PRESSURE   R - RISING PRESSURE
         S - STEADY PRESSURE
VSB    - VISIBILITY IN MILES
HX     - HEAT INDEX IN FAHRENHEIT
WCI    - WIND CHILL INDEX IN FAHRENHEIT
TC     - TEMPERATURE IN CELSIUS WHICH IS ALSO KNOWN AS
         TEMPERATURE IN CENTIGRADE
AFB    - AIR FORCE BASE
         LUKE AFB IS LUKE AIR FORCE BASE
         DAVIS-MONTHAN IS DAVIS-MONTHAN AIR FORCE BASE
NAS    - NAVAL AIR STATION
         EL CENTRO NAS IS EL CENTRO NAVAL AIR STATION
N/A    - NOT AVAILABLE





USA.gov is the U.S. government's official web portal to all federal, state and local government web resources and services.